Regional Weather Roundup
Issued by NWS Grand Forks, ND

Home | Current Version | Previous Version | Text Only | Print | Product List | Glossary On
Versions: 1 2 3 4 5 6 7 8 9 10 11 12 13 14 15 16 17 18 19 20 21 22 23 24 25 26 27 28 29 30 31 32 33 34 35 36 37 38 39 40 41 42 43 44 45 46 47 48 49 50
000
ASUS43 KFGF 081431
RWRFGF
PRAIRIE TO PINES  WEATHER ROUNDUP
NATIONAL WEATHER SERVICE EASTERN NORTH DAKOTA/GRAND FORKS ND
800 AM CST THU DEC 08 2016

 **SATELLITE DATA USED TO AUGMENT SKY COVER AT AUTOMATED STATIONS**
 *****  WEATHER ACROSS EASTERN NORTH DAKOTA  *****

CITY           SKY/WX    TMP DP  RH WIND       PRES   REMARKS
GRAND FORKS    LGT SNOW  15  10  80 NW21G32   30.46R BLWGSNOWWCI  -2
GRAND FRKS AFB CLOUDY    14   9  79 N17       30.46R WCI  -3
DEVILS LAKE    FLURRIES   5   1  83 NW21      30.49R WCI -16
FARGO          CLOUDY    16  10  77 NW22      30.44R WCI  -2
WAHPETON ARPT  CLOUDY    14   9  79 NW18      30.46R WCI  -3
$$

 ***** WEATHER ACROSS CENTRAL AND WESTERN NORTH DAKOTA  *****

CITY           SKY/WX    TMP DP  RH WIND       PRES   REMARKS
BISMARCK       CLOUDY     2  -3  80 W16       30.61R WCI -18
MINOT          CLEAR     -1  -6  79 W20       30.59R WCI -23
JAMESTOWN      MIX PCPN   4   0  83 NW23G32   30.50R FOG     WCI -18
MINOT AFB      CLEAR     -4  -9  77 NW18      30.58R WCI -26
GARRISON         N/A     -2  -7  79 NW15      30.58R WCI -22
WILLISTON      PTCLDY    -3  -9  75 NW8       30.65R WCI -18
DICKINSON      CLOUDY    -8 -13  78 NW18      30.54S WCI -32
HETTINGER      CLEAR     -7 -12  79 NW14      30.57R WCI -28
$$

 *****  OTHER AIRPORT OBSERVATIONS IN OUR AREA  *****

CITY           SKY/WX    TMP DP  RH WIND       PRES   REMARKS
WALHALLA       LGT SNOW  12  12 100 NW15      30.50R WCI  -4
GRAFTON AIRPOR LGT SNOW  14  10  85 NW22      30.48R WCI  -4
VALLEY CITY AR FLURRIES   7   5  92 NW24G30   30.49R WCI -15
CANDO          CLOUDY     7   1  78 NW14      30.53R WCI -10
CAVALIER APRT  LGT SNOW  14   9  79 NW20G26   30.48R VSB 3/4 WCI  -3
GWINNER        CLOUDY    12   7  79 NW22G29   30.48R WCI  -7
SHEYENNE NWR     N/A     10   2  71 NW15      29.95S WCI  -7
ROLLA          CLOUDY     3   0  85 NW26      30.48S FOG     WCI -20
 ***** THE ABOVE OBSERVATIONS ARE NON NWS ARE NOT QUALITY
       CONTROLLED AND MAY MIS-REPORT RAIN FOR SNOW...
$$

  *****  WEATHER ACROSS NORTHERN MINNESOTA  *****

CITY           SKY/WX    TMP DP  RH WIND       PRES   REMARKS
FLAG ISLAND    CLOUDY    19  16  86 N21       30.32R WCI   3
WARROAD        CLOUDY    16  12  86 NW12      30.34R WCI   3
ROSEAU         CLOUDY    18  12  79 N13       30.35R WCI   4
HALLOCK        CLOUDY    16  12  86 NW21G26   30.43R WCI  -2
THF RVR FALLS  LGT SNOW  14  10  85 NW20      30.38R FOG     WCI  -3
BAUDETTE       LGT SNOW  19  15  84 N14       30.28R FOG     WCI   6
WASKISH        CLOUDY    16  14  93 NW13G18   30.29R WCI   2
CROOKSTON      LGT SNOW  14  12  92 N24       30.42R VSB 1   WCI  -5
STEPHEN NDAWN    N/A     12  10  92 NW18        N/A  WCI  -5
GREENBUSH NDAW   N/A     16  14  93 NW16        N/A  WCI   0
$$
  *****  WEATHER ACROSS CENTRAL AND WEST MINNESOTA  *****

CITY           SKY/WX    TMP DP  RH WIND       PRES   REMARKS
FOSSTON        LGT SNOW  10   9  92 NW12      30.36R WCI  -4
BEMIDJI        LGT SNOW  15  12  90 NW13      30.29R WCI   0
PARK RAPIDS    FLURRIES  16   9  74 NW12      30.28R WCI   3
ELBOW LAKE     LGT SNOW  13  10  90 NW23      30.40R WCI  -7
WADENA         FLURRIES  12   9  85 NW13      30.32R WCI  -3
DETROIT LAKES  LGT SNOW  16  12  86 NW21G26   30.36R WCI  -2
MOORHEAD       MIX PCPN  16  10  79 NW20G28   30.45R WCI  -1
FERGUS FALLS   LGT SNOW  12  10  92 NW18      30.46R WCI  -5
MORRIS MN      CLOUDY    12   9  85 NW22G31   30.40R FOG     WCI  -7
STAPLES        FLURRIES  16  10  79 NW13      30.30R WCI   2
$$
  *****  WEATHER ELSEWHERE ACROSS MINNESOTA  *****

CITY           SKY/WX    TMP DP  RH WIND       PRES   REMARKS
DULUTH         MOCLDY    19  15  84 NW15G22   30.15R FOG     WCI   5
INTRNTL FALLS  MIX PCPN  17  13  84 NW10      30.24R FOG     WCI   5
ELY            CLOUDY    18  16  93 NW6G16    30.14R WCI   9
CLOQUET        LGT SNOW  19  14  79 NW10      30.18R WCI   8
WHEATON        CLOUDY    12   9  85 W16G25    30.47R WCI  -4
BRAINERD       CLOUDY    17  12  80 NW14      30.27R WCI   3
HIBBING        LGT SNOW  17  13  84 NW16      30.18R FOG     WCI   2
ALEXANDRIA     LGT SNOW  16  12  84 NW17      30.34R FOG     WCI   0
SAINT CLOUD    CLEAR     18  13  80 NW16      30.29R WCI   3
MINNEAPOLIS    PTCLDY    18  12  77 NW13      30.28R WCI   5
$$

  *****  WEATHER ACROSS SOUTH DAKOTA  *****

CITY           SKY/WX    TMP DP  RH WIND       PRES   REMARKS
SIOUX FALLS    PTCLDY     7   3  84 NW17      30.49R WCI -12
BROOKINGS      CLEAR      6   2  83 NW15      30.45R WCI -12
WATERTOWN      CLOUDY     5   1  83 NW16G25   30.44R FOG     WCI -14
HURON          CLEAR      5   1  83 NW14      30.57R WCI -12
SISSETON         N/A      9   3  77 NW24      30.45R WCI -12
ABERDEEN       CLOUDY     9   1  70 NW20      30.55R WCI -10
MITCHELL       CLEAR      7   1  76 NW17      30.59R WCI -12
PIERRE         MOCLDY     6  -1  73 NW21G28   30.61R WCI -14
MOBRIDGE       CLOUDY     5  -4  66 NW23      30.56R WCI -17
RAPID CITY     CLEAR     -5 -11  75 N6        30.56R WCI -18
$$

  *****  SOME WEATHER IN NEARBY STATES *****

CITY           SKY/WX    TMP DP  RH WIND       PRES   REMARKS
GLASGOW MT     CLOUDY    -7 -11  83 W5        30.65S WCI -18
GREAT FALLS MT CLOUDY    -3  -8  79 NE6       30.48S WCI -15
CHEYENNE WY    CLOUDY   -12 -17  78 W6        30.30S WCI -26
SCOTTSBLUFF NE CLOUDY    -9 -14  78 NW9       30.53R WCI -26
OMAHA NE       PTCLDY    11   3  70 NW17      30.57R WCI  -6
DES MOINES IA  PTCLDY    13   4  67 NW23      30.46R WCI  -6
DAVENPORT IA   PTCLDY    14   7  73 W23       30.35R WCI  -5
CHICAGO IL     CLOUDY    17   8  67 W18G28    30.22R WCI   1
EAU CLAIRE WI  CLOUDY    19  15  84 W10       30.19R WCI   7
LA CROSSE WI   CLOUDY    20  13  74 W10       30.25R WCI   9
$$

  *****  SOME NATIONAL WEATHER *****

CITY           SKY/WX    TMP DP  RH WIND       PRES   REMARKS
LA GUARDIA NY  CLOUDY    44  27  51 VRB5      29.98S
RALEIGH NC     CLOUDY    51  45  79 VRB5      30.07R
ATLANTA GA     CLOUDY    43  31  62 NW15      30.20R
NEW ORLEANS LA LGT RAIN  52  50  93 N14G23    30.30R
OKLAHOMA CITY  MOCLDY    22  14  71 N16G23    30.64F WCI   8
ALBUQUERQUE NM CLOUDY    24  13  62 NW6       30.36R WCI  17
SALT LAKE CITY CLOUDY    22  11  62 SE3       30.29R
LOS ANGELES CA MOCLDY    53  45  74 CALM      30.20R
BOISE ID       CLOUDY    19   9  65 S10       30.26S WCI   7
SEATTLE WA     MOCLDY    33  13  43 E17G25    30.12F WCI  22
$$

*** WEATHER ACROSS MANITOBA...SASKATCHEWAN AND ONTARIO ***
                ***ONTARIO***

CITY           SKY/WX    TMP DP  RH WIND       PRES   REMARKS
GERALDTON      LGT SNOW  19  16  86 NW12G18   29.92R DRFTSNOWWCI   7
THUNDER BAY    CLOUDY    23  18  80 NW12      30.06R WCI  12
SIOUX LOOKOUT  LGT SNOW  14  10  85 NW13G20   30.19R VSB 1   WCI   0
TORONTO        FLURRIES  32  19  59 W17G25    29.90R WCI  21
BIG TROUT LK   FLURRIES   9   5  85 NW13G18   30.20R WCI  -7
PICKLE LAKE    LGT SNOW   9   5  85 NW12G22   30.13  DRFTSNOWWCI  -6
DRYDEN         FLURRIES  14  12  92 NW9       30.21R WCI   2
KENORA         FLURRIES  14  10  85 N13       30.29R WCI   0
$$
                *** MANITOBA***

CITY           SKY/WX    TMP DP  RH WIND       PRES   REMARKS
BRANDON        MOCLDY     5   0  78 NW14      30.53R WCI -12
DAUPHIN        FLURRIES   9   3  78 NW3       30.57R
ISLAND LAKE    CLOUDY     1  -2  85 NW14G21   30.44  WCI -17
PILOT MOUND      N/A      7   3  85 NW17        N/A  WCI -12
THE PAS        FLURRIES  -4  -9  77 N15G25    30.63S WCI -25
THOMPSON       PTCLDY   -15 -20  76 NW6       30.60R WCI -29
WINNIPEG       FLURRIES  14  10  85 NW20      30.46R WCI  -3
LYNN LAKE      CLEAR    -18 -24  76 NW9       30.65S WCI -38
CHURCHILL      LGT SNOW  -2  -6  84 NW24G30   30.51R BLWGSNOWWCI -27
GILLAM         PTCLDY   -15 -20  76 N15G22    30.55R WCI -38
$$
                ***SASKATCHEWAN***

CITY           SKY/WX    TMP DP  RH WIND       PRES   REMARKS
ESTEVAN        CRYSTALS -11 -15  84 W13       30.60R WCI -32
KINDERSLEY     MOCLDY    -8 -11  84 N8        30.64S WCI -23
LLOYDMINSTER   CRYSTALS -15 -18  84 NW6       30.67S WCI -29
PRINCE ALBERT  FLURRIES  -8 -13  77 W7        30.68S WCI -22
REGINA         FLURRIES  -2  -8  78 NW13      30.62S WCI -21
YORKTON        FLURRIES   3  -2  78 NW15      30.56S WCI -15
N. BATTLEFORD  CLEAR    -11 -17  77 NW9       30.72R WCI -29
LA RONGE       FLURRIES -13 -18  77 NW6       30.72S WCI -27
SASKATOON      CRYSTALS  -9 -13  84 NW7       30.69S WCI -24
SWIFT CURRENT  CLEAR    -13 -17  84 W13       30.57R WCI -34
$$
NOTE: THESE ARE AUTOMATED STATIONS WITH LIMITED QUALITY CONTROL
      "FAIR" INDICATES FEW OR NO CLOUDS BELOW 12,000 FEET WITH NO
      SIGNIFICANT WEATHER AND/OR OBSTRUCTIONS TO VISIBILITY.
      SKY/WX - SKY CONDITION AND SIGNIFICANT WEATHER.
      TMP - AIR TEMPERATURE.    DP   - DEWPOINT TEMPERATURE.
      RH  - RELATIVE HUMIDITY.  PRES - PRESSURE.
      HX  - HEAT INDEX.         WCI  - WIND CHILL INDEX.
$



USA.gov is the U.S. government's official web portal to all federal, state and local government web resources and services.